CDT,Max TemperatureF,Mean TemperatureF,Min TemperatureF,Max Dew PointF,MeanDew PointF,Min DewpointF,Max Humidity, Mean Humidity, Min Humidity, Max Sea Level PressureIn, Mean Sea Level PressureIn, Min Sea Level PressureIn, Max VisibilityMiles, Mean VisibilityMiles, Min VisibilityMiles, Max Wind SpeedMPH, Mean Wind SpeedMPH, Max Gust SpeedMPH,PrecipitationIn, CloudCover, Events, WindDirDegrees
2013-10-1,86,69,52,65,59,49,93,72,51,29.97,29.91,29.84,10,8,2,13,5,18,0.00,1,,142
2013-10-2,86,72,58,70,62,55,93,72,51,30.02,29.96,29.86,10,4,0,15,6,19,0.00,3,Fog,133
2013-10-3,87,76,65,70,65,60,90,73,55,29.93,29.82,29.71,10,10,3,25,11,32,0.17,5,Rain-Thunderstorm,144
2013-10-4,91,76,61,70,66,56,84,65,46,29.92,29.79,29.70,10,9,1,28,14,39,0.79,4,Rain-Thunderstorm,188
2013-10-5,62,56,49,48,37,34,64,52,39,30.05,29.98,29.92,10,10,10,20,11,26,0.00,3,,285
2013-10-6,65,54,43,44,40,34,89,67,44,30.04,29.94,29.87,10,10,10,26,12,33,0.00,5,,290
2013-10-7,75,57,39,47,42,36,89,61,33,30.16,30.09,30.02,10,10,10,12,5,15,0.00,0,,273
2013-10-8,78,62,46,49,45,42,86,59,31,30.11,30.06,30.00,10,10,10,22,9,29,0.00,0,,144
2013-10-9,79,64,49,50,47,45,86,59,32,30.09,30.04,29.99,10,10,10,17,9,23,0.00,0,,136
2013-10-10,82,64,46,56,51,44,86,63,39,30.06,29.97,29.86,10,10,8,21,9,29,0.00,0,,131
2013-10-11,78,68,57,64,59,52,84,72,60,29.86,29.80,29.74,10,10,9,23,13,31,0.00,2,,160
2013-10-12,73,58,42,48,41,37,89,58,27,30.28,30.11,29.91,10,10,8,17,7,22,0.00,0,,337
2013-10-13,73,56,38,43,37,33,92,59,25,30.42,30.33,30.29,10,10,10,16,6,21,0.00,0,,92
2013-10-14,72,60,47,61,50,38,87,64,40,30.28,30.03,29.85,10,8,2,28,13,35,0.36,5,Rain,145
2013-10-15,62,54,45,60,45,36,93,70,46,30.10,29.99,29.87,10,10,8,21,12,28,0.09,3,Rain,292
2013-10-16,61,51,40,45,39,36,82,63,44,30.13,30.07,30.00,10,10,10,15,6,21,T,3,Rain,306
2013-10-17,69,53,36,44,39,34,92,60,27,30.05,29.98,29.91,10,10,6,20,6,26,0.00,0,,275
2013-10-18,44,40,35,38,35,33,92,84,76,30.17,30.14,30.05,10,9,3,14,6,20,0.23,6,Rain,302
2013-10-19,65,48,31,39,35,29,92,62,31,30.12,30.01,29.91,10,9,6,18,7,23,0.00,2,,208
2013-10-20,73,57,40,45,41,37,92,63,33,29.96,29.86,29.78,10,10,10,21,7,26,T,1,,233
2013-10-21,58,48,37,41,34,27,85,59,32,30.16,30.08,29.97,10,10,10,15,7,20,0.00,1,,354
2013-10-22,64,49,33,44,38,31,89,66,43,30.14,30.00,29.94,10,10,10,25,10,32,T,3,,295
2013-10-23,55,42,29,37,33,27,92,69,46,30.20,30.14,30.06,10,10,6,14,5,18,T,2,,3
2013-10-24,54,41,27,36,29,24,85,59,32,30.47,30.37,30.20,10,10,6,18,7,24,0.00,3,,346
2013-10-25,59,41,23,32,26,21,96,62,28,30.50,30.37,30.17,10,10,5,20,6,25,0.00,0,,183
2013-10-26,63,47,31,42,34,28,92,61,30,30.20,30.15,30.09,10,10,9,20,7,24,0.00,0,,316
2013-10-27,66,45,24,34,29,21,92,59,26,30.18,30.06,29.95,10,9,4,16,6,22,0.00,0,,174
2013-10-28,64,48,32,51,41,28,93,78,62,30.15,30.10,30.00,10,9,4,15,5,19,0.00,0,,134
2013-10-29,67,59,50,63,56,48,100,93,86,30.10,30.00,29.93,6,3,0,21,8,28,1.28,8,Fog-Rain-Thunderstorm,104
2013-10-30,71,64,57,66,62,55,93,86,78,29.96,29.83,29.71,10,6,0,22,9,29,0.56,8,Fog-Rain-Thunderstorm,211
2013-10-31,59,49,38,55,48,38,93,75,57,29.74,29.66,29.58,10,7,2,17,6,21,0.57,6,Rain-Thunderstorm,325